This demonstration page uses our WeatherBlox Daily Observations layout. Learn more.

Left ArrowRight Arrow

39.51506, -84.39828

Hourly Observations for May 19, 2016

Temp ( °F °C ) Dew Point ( °F °C ) Humidity (%) Winds ( mph kmh ) Pressure ( in mb ) Visibility ( mi km ) Precip ( " mm )
12:15 am 00:15 Partly Cloudy 55 12.5 40 4.4 58 58 N 3 6 30.18 1022 10 16.0934 N/A
12:35 am 00:35 Clear 55 12.5 40 4.5 58 58 N 3 6 30.18 1022 10 16.0934 N/A
12:55 am 00:55 Clear 55 12.5 41 5.2 61 61 NNW 3 6 30.18 1022 10 16.0934 N/A
1:15 am 01:15 Clear 51 10.3 39 4 65 65 NNW 3 6 30.18 1022 10 16.0934 N/A
1:35 am 01:35 Clear 49 9.6 39 4.1 69 69 N 3 6 30.18 1022 10 16.0934 N/A
1:55 am 01:55 Clear 49 9.6 40 4.2 69 69 N 5 7 30.18 1022 10 16.0934 N/A
2:15 am 02:15 Clear 49 9.6 39 4.1 69 69 N 5 7 30.18 1022 10 16.0934 N/A
2:35 am 02:35 Clear 49 9.6 40 4.5 71 71 N 3 6 30.18 1022 10 16.0934 N/A
2:55 am 02:55 Clear 49 9.6 41 5 73 73 N 3 6 30.18 1022 10 16.0934 N/A
3:15 am 03:15 Clear 49 9.6 42 5.7 77 77 N N/A 30.18 1022 10 16.0934 N/A
3:35 am 03:35 Clear 47 8.5 40 4.7 77 77 N N/A 30.18 1022 10 16.0934 N/A
3:55 am 03:55 Clear 47 8.2 40 4.3 77 77 N 3 6 30.18 1022 10 16.0934 N/A
4:15 am 04:15 Clear 44 6.7 38 3.1 78 78 N N/A 30.18 1022 10 16.0934 N/A
4:35 am 04:35 Clear 45 7.3 38 3.5 77 77 N N/A 30.18 1022 10 16.0934 N/A
4:55 am 04:55 Clear 47 8.2 40 4.2 76 76 N N/A 30.18 1022 10 16.0934 N/A
5:15 am 05:15 Clear 47 8.2 40 4.3 77 77 N 3 6 30.18 1022 10 16.0934 N/A
5:35 am 05:35 Clear 47 8.2 40 4.5 78 78 N 3 6 30.18 1022 10 16.0934 N/A
5:55 am 05:55 Clear 44 6.5 37 2.8 77 77 N 3 6 30.18 1022 10 16.0934 N/A
6:15 am 06:15 Clear 43 6.2 37 2.8 79 79 N 3 6 30.18 1022 10 16.0934 N/A
6:35 am 06:35 Sunny 44 6.7 38 3.2 79 79 N N/A 30.18 1022 10 16.0934 N/A
6:55 am 06:55 Sunny 44 6.7 38 3.2 79 79 NNE 3 6 30.18 1022 10 16.0934 N/A
7:15 am 07:15 Sunny 47 8.1 40 4.7 79 79 N N/A 30.21 1023 10 16.0934 N/A
7:35 am 07:35 Sunny 49 9.6 43 6 78 78 N N/A 30.21 1023 10 16.0934 N/A
7:55 am 07:55 Sunny 49 9.6 41 5.1 74 74 N N/A 30.21 1023 10 16.0934 N/A
8:15 am 08:15 Sunny 54 12.3 42 5.7 64 64 NNE 3 6 30.21 1023 10 16.0934 N/A
8:35 am 08:35 Sunny 55 12.5 40 4.2 57 57 NNE 5 7 30.21 1023 10 16.0934 N/A
8:55 am 08:55 Sunny 55 12.9 39 3.8 54 54 NE 5 7 30.21 1023 10 16.0934 N/A
9:15 am 09:15 Sunny 57 13.8 38 3.6 50 50 NNE 5 7 30.21 1023 10 16.0934 N/A
9:30 am 09:30 Sunny 57 14.1 37 3 47 47 N 6 9 30.24 1024 10 16.0934 N/A
9:55 am 09:55 Sunny 60 15.3 37 2.7 43 43 NE 6 9 30.24 1024 10 16.0934 N/A
10:15 am 10:15 Sunny 61 16.3 37 3 41 41 N 5 7 30.24 1024 10 16.0934 N/A
10:35 am 10:35 Sunny 62 16.8 35 1.7 36 36 NE 6 9 30.24 1024 10 16.0934 N/A
10:55 am 10:55 Sunny 64 17.9 36 2.1 35 35 NNE 6 9 30.18 1022 10 16.0934 N/A
11:15 am 11:15 Sunny 67 19.2 35 1.4 31 31 ENE 9 15 30.18 1022 10 16.0934 N/A
11:35 am 11:35 Sunny 67 19.5 33 0.7 29 29 NNE 7 11 30.18 1022 10 16.0934 N/A
11:55 am 11:55 Sunny 69 20.8 36 2.1 29 29 ENE 10 17 30.18 1022 10 16.0934 N/A
12:15 pm 12:15 Sunny 69 20.8 35 1.5 28 28 N 8 13 30.18 1022 10 16.0934 N/A
12:35 pm 12:35 Partly Cloudy 69 20.8 35 1.8 28 28 E 10 17 30.18 1022 10 16.0934 N/A
12:55 pm 12:55 Sunny 69 20.8 33 0.5 26 26 N N/A 30.18 1022 10 16.0934 N/A
1:15 pm 13:15 Sunny 69 20.8 33 0.3 26 26 NNE 3 6 30.18 1022 10 16.0934 N/A
1:35 pm 13:35 Sunny 69 20.8 31 -0.8 24 24 NNW 5 7 30.18 1022 10 16.0934 N/A
1:55 pm 13:55 Sunny 69 20.8 30 -1.3 23 23 NNE 6 9 30.18 1022 10 16.0934 N/A
2:15 pm 14:15 Sunny 69 20.8 30 -1.1 23 23 NE 8 13 30.15 1021 10 16.0934 N/A
2:35 pm 14:35 Sunny 69 20.8 28 -2.4 21 21 N N/A 30.15 1021 10 16.0934 N/A
2:55 pm 14:55 Sunny 70 21.1 32 -0.1 24 24 NE 9 15 30.15 1021 10 16.0934 N/A
3:15 pm 15:15 Sunny 69 20.8 29 -1.9 22 22 ENE 7 11 30.15 1021 10 16.0934 N/A
3:35 pm 15:35 Sunny 69 20.8 27 -2.6 21 21 NE 5 7 30.15 1021 10 16.0934 N/A
3:55 pm 15:55 Sunny 72 22.3 32 -0.1 23 23 NE 10 17 30.12 1020 10 16.0934 N/A
4:15 pm 16:15 Sunny 72 22.3 28 -2.3 19 19 N 6 9 30.12 1020 10 16.0934 N/A
4:35 pm 16:35 Sunny 74 23.1 31 -0.6 21 21 E 3 6 30.12 1020 10 16.0934 N/A
4:55 pm 16:55 Sunny 74 23.1 31 -0.7 21 21 NNE 9 15 30.12 1020 10 16.0934 N/A
5:15 pm 17:15 Sunny 73 22.8 28 -2.2 19 19 ESE 7 11 30.12 1020 10 16.0934 N/A
5:35 pm 17:35 Sunny 74 23.6 28 -2.1 18 18 ESE 8 13 30.12 1020 10 16.0934 N/A
5:55 pm 17:55 Sunny 73 22.9 25 -3.9 16 16 E 6 9 30.12 1020 10 16.0934 N/A
6:15 pm 18:15 Sunny 74 23.4 28 -2.4 18 18 NNE 5 7 30.12 1020 10 16.0934 N/A
6:35 pm 18:35 Sunny 73 22.7 26 -3.1 18 18 ENE 6 9 30.12 1020 10 16.0934 N/A
6:55 pm 18:55 Sunny 72 22.1 26 -3.5 18 18 NE 7 11 30.12 1020 10 16.0934 N/A
7:15 pm 19:15 Sunny 70 20.9 26 -3.1 20 20 ENE 7 11 30.12 1020 10 16.0934 N/A
7:35 pm 19:35 Sunny 69 20.8 27 -2.8 20 20 E 5 7 30.12 1020 10 16.0934 N/A
7:55 pm 19:55 Sunny 69 20.8 33 0.4 26 26 E 6 9 30.12 1020 10 16.0934 N/A
8:15 pm 20:15 Sunny 69 20.8 31 -0.5 24 24 E 5 7 30.12 1020 10 16.0934 N/A
8:35 pm 20:35 Sunny 69 20.3 32 0.1 26 26 E 3 6 30.12 1020 10 16.0934 N/A
8:55 pm 20:55 Clear 63 17.2 38 3.2 39 39 N N/A 30.12 1020 10 16.0934 N/A
9:15 pm 21:15 Clear 57 14.1 44 6.7 61 61 NNW 3 6 30.15 1021 10 16.0934 N/A
9:35 pm 21:35 Clear 57 13.8 43 6.2 60 60 N N/A 30.18 1022 10 16.0934 N/A
9:55 pm 21:55 Clear 57 13.8 42 5.7 58 58 NNW 3 6 30.18 1022 10 16.0934 N/A
10:15 pm 22:15 Clear 57 13.7 45 7 64 64 N N/A 30.18 1022 10 16.0934 N/A
10:35 pm 22:35 Clear 55 12.8 42 5.8 63 63 N 3 6 30.18 1022 10 16.0934 N/A
10:55 pm 22:55 Clear 55 12.5 42 5.6 63 63 N 3 6 30.18 1022 10 16.0934 N/A
11:15 pm 23:15 Clear 55 12.5 44 6.7 68 68 N N/A 30.18 1022 10 16.0934 N/A
11:35 pm 23:35 Clear 52 11.2 44 6.7 74 74 N 3 6 30.18 1022 10 16.0934 N/A
11:55 pm 23:55 Clear 52 11 43 6.3 73 73 N N/A 30.18 1022 10 16.0934 N/A

Powered by AerisWeather